1522688400.5,49256,10.56,72818.0,-11.23,-12.39,-12.11,0,*67
1522688401.72,49257,10.56,72820.8,-11.23,-12.39,-12.21,0,*65
1522688402.99,49258,10.56,72822.3,-11.23,-12.35,-12.11,0,*65
1522688404.23,49259,10.56,72820.5,-11.23,-12.39,-12.11,0,*68
1522688405.5,49260,10.56,72822.5,-11.23,-12.35,-12.11,0,*6E
1522688406.74,49261,10.56,72824.0,-11.23,-12.35,-12.21,0,*6C
1522688407.99,49262,10.56,72816.5,-11.23,-12.35,-12.21,0,*6F
1522688409.21,49263,10.56,72822.0,-11.23,-12.39,-12.21,0,*62
1522688410.45,49264,10.56,72818.0,-11.23,-12.35,-12.21,0,*69
1522688411.67,49265,10.56,72822.0,-11.23,-12.39,-12.25,0,*60
1522688412.89,49266,10.56,72820.3,-11.23,-12.47,-12.21,0,*6E
1522688414.13,49267,10.56,72820.8,-11.25,-12.43,-12.29,0,*65
1522688415.42,49268,10.56,72822.3,-11.25,-12.53,-12.15,0,*64
1522688416.65,49269,10.56,72822.0,-11.25,-12.43,-12.25,0,*67
1522688417.89,49270,10.56,72826.8,-11.25,-12.43,-12.25,0,*6F
1522688419.13,49271,10.56,72822.3,-11.25,-12.39,-12.29,0,*6F
1522688420.35,49272,10.56,72820.8,-11.23,-12.39,-12.25,0,*66
1522688421.59,49273,10.56,72824.3,-11.23,-12.39,-12.11,0,*60
1522688422.8,49274,10.56,72828.5,-11.23,-12.39,-12.21,0,*64
1522688424.04,49275,10.5,72824.5,-11.25,-12.39,-12.25,0,*67
1522688425.28,49276,10.56,72828.8,-11.25,-12.39,-12.29,0,*68
1522688426.52,49277,10.56,72828.3,-11.25,-12.43,-12.29,0,*64
1522688427.76,49278,10.56,72830.3,-11.25,-12.43,-12.29,0,*6B
1522688429.0,49279,10.56,72830.3,-11.25,-12.43,-12.29,0,*6A
1522688430.24,49280,10.56,72830.8,-11.25,-12.39,-12.39,0,*60
1522688431.51,49281,10.56,72828.5,-11.25,-12.53,-12.29,0,*6C
1522688432.73,49282,10.56,72830.5,-11.23,-12.39,-12.29,0,*65
1522688433.96,49283,10.56,72828.8,-11.25,-12.39,-12.25,0,*6E
1522688435.23,49284,10.56,72828.3,-11.25,-12.53,-12.29,0,*69
1522688436.47,49285,10.56,72830.8,-11.25,-12.43,-12.25,0,*65
1522688437.77,49286,10.56,72828.5,-11.25,-12.53,-12.35,0,*66
1522688439.01,49287,10.56,72828.8,-11.25,-12.43,-12.29,0,*6B
1522688440.25,49288,10.56,72830.8,-11.25,-12.43,-12.39,0,*65
1522688441.51,49289,10.56,72832.0,-11.25,-12.57,-12.29,0,*60
1522688442.75,49290,10.56,72828.8,-11.25,-12.43,-12.25,0,*61
1522688443.99,49291,10.56,72832.8,-11.23,-12.39,-12.11,0,*6C
1522688445.23,49292,10.56,72828.8,-11.25,-12.43,-12.25,0,*63
1522688446.47,49293,10.56,72828.0,-11.25,-12.43,-12.29,0,*6E
1522688447.74,49294,10.56,72828.0,-11.25,-12.53,-12.25,0,*64
1522688448.95,49295,10.5,72826.5,-11.23,-12.43,-12.29,0,*6E
1522688450.19,49296,10.56,72830.5,-11.25,-12.43,-12.25,0,*67
1522688451.43,49297,10.5,72824.5,-11.25,-12.43,-12.29,0,*6A
1522688452.65,49298,10.56,72830.5,-11.23,-12.47,-12.25,0,*6B
1522688453.89,49299,10.56,72826.0,-11.25,-12.43,-12.29,0,*64
1522688455.13,49300,10.5,72822.0,-11.27,-12.53,-12.25,0,*6A
1522688456.37,49301,10.56,72822.0,-11.25,-12.43,-12.39,0,*65
1522688457.61,49302,10.56,72824.5,-11.25,-12.43,-12.29,0,*67
1522688458.85,49303,10.56,72824.5,-11.25,-12.43,-12.25,0,*6A
1522688460.11,49304,10.5,72822.5,-11.25,-12.43,-12.15,0,*6E
1522688461.35,49305,10.56,72822.3,-11.25,-12.43,-12.29,0,*60
1522688462.64,49306,10.56,72820.5,-11.25,-12.53,-12.15,0,*6D
1522688463.88,49307,10.56,72820.3,-11.25,-12.43,-12.25,0,*6E
1522688465.09,49308,10.56,72820.5,-11.23,-12.39,-12.25,0,*6A
1522688466.36,49309,10.5,72820.0,-11.25,-12.53,-12.25,0,*61
1522688467.6,49310,10.5,72820.8,-11.25,-12.29,-12.25,0,*64
1522688468.84,49311,10.56,72820.3,-11.25,-12.39,-12.25,0,*64
1522688470.08,49312,10.56,72820.3,-11.25,-12.39,-12.25,0,*67
1522688471.32,49313,10.5,72818.5,-11.25,-12.39,-12.25,0,*66
1522688472.58,49314,10.56,72826.0,-11.25,-12.29,-12.15,0,*63
1522688473.82,49315,10.5,72816.0,-11.25,-12.39,-12.25,0,*60
1522688475.06,49316,10.56,72822.8,-11.25,-12.39,-12.25,0,*63
1522688476.27,49317,10.56,72822.0,-11.27,-12.39,-12.25,0,*60
1522688477.49,49318,10.56,72818.5,-11.27,-12.43,-12.29,0,*6E
1522688478.71,49319,10.56,72818.3,-11.27,-12.43,-12.29,0,*6F
1522688479.93,49320,10.5,72818.3,-11.27,-12.43,-12.29,0,*65
1522688481.15,49321,10.56,72818.0,-11.27,-12.43,-12.25,0,*68
1522688482.36,49322,10.5,72814.3,-11.27,-12.43,-12.25,0,*6B
1522688483.6,49323,10.5,72816.5,-11.27,-12.43,-12.15,0,*69
1522688484.84,49324,10.56,72816.5,-11.27,-12.39,-12.15,0,*63
1522688486.08,49325,10.56,72820.0,-11.27,-12.43,-12.15,0,*6F
1522688487.32,49326,10.56,72822.0,-11.27,-12.43,-12.15,0,*6C
1522688488.58,49327,10.56,72824.5,-11.25,-12.43,-12.15,0,*6F
1522688489.8,49328,10.5,72820.8,-11.27,-12.39,-12.25,0,*6C
1522688491.04,49329,10.56,72822.5,-11.27,-12.43,-12.15,0,*63
1522688492.26,49330,10.56,72816.3,-11.27,-12.39,-12.25,0,*65
1522688493.48,49331,10.56,72822.5,-11.27,-12.29,-12.25,0,*65
1522688494.7,49332,10.56,72820.0,-11.27,-12.39,-12.25,0,*67
1522688495.92,49333,10.56,72818.0,-11.27,-12.39,-12.29,0,*6A
1522688497.14,49334,10.56,72822.3,-11.27,-12.47,-12.21,0,*6C
1522688498.36,49335,10.5,72822.5,-11.27,-12.39,-12.25,0,*60
1522688499.62,49336,10.56,72826.5,-11.25,-12.29,-12.15,0,*63
1522688500.84,49337,10.5,72822.5,-11.27,-12.39,-12.25,0,*62
1522688502.08,49338,10.56,72826.5,-11.27,-12.39,-12.15,0,*6E
1522688503.33,49339,10.5,72824.3,-11.27,-12.29,-12.15,0,*6E
1522688504.54,49340,10.56,72824.3,-11.31,-12.43,-12.29,0,*64
1522688505.79,49341,10.56,72822.8,-11.25,-12.29,-12.25,0,*60
1522688507.0,49342,10.56,72822.5,-11.27,-12.39,-12.25,0,*60
1522688508.24,49343,10.56,72822.8,-11.27,-12.43,-12.15,0,*6F
1522688509.46,49344,10.56,72824.8,-11.31,-12.47,-12.21,0,*6C
1522688510.7,49345,10.56,72826.8,-11.27,-12.43,-12.15,0,*69
1522688511.92,49346,10.5,72822.0,-11.31,-12.47,-12.29,0,*66
1522688513.14,49347,10.56,72822.8,-11.31,-12.43,-12.29,0,*63
1522688514.39,49348,10.56,72822.5,-11.27,-12.53,-12.25,0,*66
1522688515.62,49349,10.56,72820.3,-11.25,-12.43,-12.25,0,*64
1522688516.86,49350,10.56,72822.5,-11.25,-12.39,-12.25,0,*61
1522688518.11,49351,10.56,72824.0,-11.27,-12.53,-12.29,0,*62
1522688519.36,49352,10.56,72822.8,-11.27,-12.43,-12.35,0,*6D
1522688520.6,49353,10.56,72824.3,-11.27,-12.43,-12.15,0,*6E
1522688521.82,49354,10.56,72828.0,-11.27,-12.43,-12.29,0,*66
1522688523.06,49355,10.56,72830.5,-11.27,-12.53,-12.25,0,*6A
1522688524.28,49356,10.56,72824.3,-11.27,-12.43,-12.25,0,*68
1522688525.52,49357,10.5,72826.0,-11.27,-12.39,-12.15,0,*67
1522688526.74,49358,10.56,72830.3,-11.31,-12.43,-12.21,0,*65
1522688527.96,49359,10.5,72826.5,-11.27,-12.29,-12.25,0,*6B
1522688529.2,49360,10.56,72830.8,-11.27,-12.39,-12.15,0,*63
1522688530.42,49361,10.56,72832.8,-11.27,-12.39,-12.25,0,*61
1522688531.66,49362,10.5,72826.0,-11.27,-12.39,-12.15,0,*61
1522688532.9,49363,10.56,72828.3,-11.27,-12.43,-12.15,0,*6D
1522688534.11,49364,10.56,72826.8,-11.31,-12.43,-12.29,0,*62
1522688535.37,49365,10.5,72826.5,-11.25,-12.39,-12.15,0,*64
1522688536.62,49366,10.56,72826.0,-11.27,-12.39,-12.15,0,*65
1522688537.83,49367,10.56,72824.8,-11.27,-12.39,-12.25,0,*67
1522688539.05,49368,10.56,72824.0,-11.31,-12.43,-12.21,0,*66
1522688540.3,49369,10.56,72824.5,-11.27,-12.29,-12.15,0,*6B
1522688541.54,49370,10.5,72826.3,-11.27,-12.29,-12.15,0,*63
1522688542.76,49371,10.5,72822.8,-11.27,-12.39,-12.25,0,*60
1522688543.98,49372,10.56,72826.3,-11.27,-12.29,-12.25,0,*62
1522688545.2,49373,10.56,72824.8,-11.31,-12.43,-12.29,0,*64
1522688546.44,49374,10.56,72820.5,-11.27,-12.29,-12.15,0,*67
1522688547.69,49375,10.5,72820.5,-11.27,-12.29,-12.15,0,*66
1522688548.91,49376,10.56,72826.8,-11.31,-12.47,-12.21,0,*6D
1522688550.13,49377,10.5,72824.8,-11.27,-12.43,-12.25,0,*6B
1522688551.35,49378,10.56,72824.8,-11.27,-12.39,-12.29,0,*65
1522688552.56,49379,10.5,72824.3,-11.31,-12.43,-12.29,0,*6E
1522688553.8,49380,10.56,72826.5,-11.27,-12.43,-12.15,0,*60
1522688555.02,49381,10.5,72824.3,-11.31,-12.43,-12.29,0,*69
1522688556.24,49382,10.5,72826.8,-11.27,-12.39,-12.25,0,*6C
1522688557.46,49383,10.5,72824.3,-11.31,-12.47,-12.29,0,*6F
1522688558.7,49384,10.5,72826.3,-11.31,-12.43,-12.35,0,*61
1522688559.92,49385,10.56,72830.0,-11.27,-12.43,-12.25,0,*66
1522688561.16,49386,10.56,72824.8,-11.27,-12.43,-12.15,0,*66
1522688562.38,49387,10.5,72824.0,-11.31,-12.47,-12.21,0,*63
1522688563.62,49388,10.56,72830.3,-11.27,-12.43,-12.15,0,*68
1522688564.84,49389,10.5,72824.5,-11.31,-12.43,-12.21,0,*69
1522688566.06,49390,10.5,72826.5,-11.27,-12.29,-12.25,0,*6E
1522688567.28,49391,10.56,72828.8,-11.31,-12.47,-12.29,0,*6C
1522688568.5,49392,10.5,72826.3,-11.31,-12.47,-12.21,0,*67
1522688569.72,49393,10.5,72822.8,-11.27,-12.39,-12.29,0,*60
1522688570.94,49394,10.56,72826.3,-11.31,-12.43,-12.21,0,*65
1522688572.18,49395,10.5,72826.0,-11.27,-12.39,-12.15,0,*69
1522688573.39,49396,10.56,72832.0,-11.31,-12.43,-12.21,0,*67
1522688574.64,49397,10.56,72828.5,-11.27,-12.29,-12.15,0,*6A
1522688575.88,49398,10.5,72826.3,-11.27,-12.39,-12.15,0,*64
1522688577.1,49399,10.56,72826.8,-11.31,-12.43,-12.21,0,*68
1522688578.32,49400,10.5,72822.8,-11.27,-12.43,-12.29,0,*60
1522688579.56,49401,10.5,72824.5,-11.31,-12.57,-12.29,0,*63
1522688580.78,49402,10.56,72828.8,-11.27,-12.43,-12.25,0,*6E
1522688582.02,49403,10.5,72824.5,-11.27,-12.43,-12.15,0,*6C
1522688583.24,49404,10.56,72830.8,-11.31,-12.43,-12.21,0,*6B
1522688584.45,49405,10.5,72828.3,-11.31,-12.43,-12.29,0,*62
1522688585.67,49406,10.56,72830.5,-11.27,-12.39,-12.25,0,*67
1522688586.92,49407,10.56,72824.0,-11.31,-12.35,-12.29,0,*61
1522688588.13,49408,10.5,72822.0,-11.31,-12.43,-12.21,0,*67
1522688589.41,49409,10.56,72822.5,-11.31,-12.35,-12.35,0,*62
1522688590.62,49410,10.5,72820.5,-11.27,-12.43,-12.29,0,*61
1522688591.84,49411,10.56,72826.3,-11.27,-12.43,-12.29,0,*60
1522688593.06,49412,10.5,72826.0,-11.27,-12.43,-12.25,0,*6F
1522688594.31,49413,10.56,72824.5,-11.27,-12.53,-12.25,0,*6F
1522688595.55,49414,10.5,72824.5,-11.31,-12.57,-12.29,0,*67
1522688596.8,49415,10.5,72828.8,-11.31,-12.57,-12.21,0,*6E
1522688598.05,49416,10.5,72830.5,-11.27,-12.53,-12.29,0,*66
1522688599.29,49417,10.56,72832.0,-11.31,-12.35,-12.29,0,*60
1522688600.54,49418,10.5,72830.0,-11.31,-12.35,-12.29,0,*6F
1522688601.76,49419,10.5,72824.5,-11.31,-12.43,-12.29,0,*6F
1522688603.0,49420,10.5,72820.8,-11.27,-12.39,-12.15,0,*60
1522688604.21,49421,10.5,72810.8,-11.31,-12.43,-12.29,0,*64
1522688605.43,49422,10.5,72812.8,-11.31,-12.43,-12.29,0,*67
1522688606.65,49423,10.56,72820.0,-11.31,-12.43,-12.21,0,*6E
1522688607.87,49424,10.5,72826.3,-11.31,-12.47,-12.29,0,*65
1522688609.11,49425,10.5,72824.5,-11.27,-12.39,-12.15,0,*65
1522688610.35,49426,10.5,72826.5,-11.31,-12.35,-12.29,0,*62
1522688611.59,49427,10.5,72830.0,-11.27,-12.39,-12.15,0,*67
1522688612.83,49428,10.5,72830.0,-11.27,-12.39,-12.15,0,*68
1522688614.05,49429,10.5,72828.8,-11.27,-12.43,-12.25,0,*67
1522688615.27,49430,10.56,72828.0,-11.31,-12.43,-12.29,0,*64
1522688616.49,49431,10.5,72830.3,-11.31,-12.47,-12.21,0,*69
1522688617.7,49432,10.5,72828.0,-11.31,-12.43,-12.21,0,*6E
1522688618.93,49433,10.56,72834.3,-11.31,-12.47,-12.29,0,*63
1522688620.14,49434,10.5,72828.5,-11.27,-12.39,-12.25,0,*66
1522688621.36,49435,10.5,72830.8,-11.31,-12.43,-12.29,0,*61
1522688622.58,49436,10.5,72828.5,-11.31,-12.43,-12.21,0,*6A
1522688623.79,49437,10.5,72828.3,-11.31,-12.43,-12.21,0,*6B
1522688625.01,49438,10.5,72828.5,-11.31,-12.43,-12.21,0,*64
1522688626.25,49439,10.5,72828.5,-11.31,-12.43,-12.35,0,*60
1522688627.5,49440,10.5,72830.0,-11.31,-12.57,-12.21,0,*6E
1522688628.74,49441,10.56,72832.5,-11.31,-12.57,-12.29,0,*67
1522688629.99,49442,10.5,72826.5,-11.31,-12.47,-12.35,0,*68
1522688631.26,49443,10.56,72830.8,-11.31,-12.57,-12.35,0,*68
1522688632.51,49444,10.5,72824.3,-11.31,-12.47,-12.35,0,*6E
1522688633.75,49445,10.5,72826.3,-11.31,-12.57,-12.29,0,*63
1522688634.97,49446,10.5,72828.0,-11.31,-12.47,-12.21,0,*69
1522688636.19,49447,10.56,72828.3,-11.31,-12.47,-12.21,0,*68
1522688637.44,49448,10.5,72828.5,-11.31,-12.35,-12.29,0,*6A
1522688638.66,49449,10.5,72828.5,-11.31,-12.47,-12.29,0,*6E
1522688639.88,49450,10.5,72830.8,-11.31,-12.47,-12.29,0,*66
1522688641.09,49451,10.5,72830.8,-11.31,-12.43,-12.29,0,*63
1522688642.31,49452,10.5,72830.3,-11.27,-12.39,-12.29,0,*6A
1522688643.56,49453,10.5,72824.5,-11.31,-12.57,-12.29,0,*64
1522688644.78,49454,10.5,72830.0,-11.31,-12.47,-12.29,0,*62
1522688646.0,49455,10.5,72828.5,-11.31,-12.47,-12.21,0,*6B
1522688647.24,49456,10.5,72828.3,-11.31,-12.43,-12.35,0,*69
1522688648.46,49457,10.5,72826.5,-11.31,-12.43,-12.29,0,*65
1522688649.68,49458,10.5,72826.0,-11.31,-12.43,-12.29,0,*6A
1522688650.92,49459,10.5,72824.0,-11.31,-12.61,-12.43,0,*67
1522688652.19,49460,10.5,72824.0,-11.31,-12.57,-12.35,0,*69
1522688653.43,49461,10.5,72822.5,-11.31,-12.57,-12.43,0,*69
1522688654.65,49462,10.5,72822.8,-11.31,-12.47,-12.29,0,*67
1522688655.89,49463,10.5,72822.0,-11.31,-12.57,-12.21,0,*6F
1522688657.11,49464,10.5,72820.5,-11.31,-12.47,-12.21,0,*69
1522688658.38,49465,10.5,72818.8,-11.31,-12.57,-12.35,0,*6C
1522688659.6,49466,10.5,72820.5,-11.31,-12.43,-12.21,0,*6F
1522688660.84,49467,10.5,72820.3,-11.31,-12.43,-12.15,0,*69
1522688662.06,49468,10.5,72826.8,-11.31,-12.47,-12.29,0,*6D
1522688663.28,49469,10.5,72826.0,-11.27,-12.43,-12.25,0,*63
1522688664.49,49470,10.56,72828.8,-11.31,-12.43,-12.21,0,*68
1522688665.73,49471,10.56,72830.8,-11.31,-12.43,-12.15,0,*6E
1522688666.97,49472,10.5,72828.5,-11.33,-12.43,-12.21,0,*68
1522688668.24,49473,10.5,72824.8,-11.33,-12.35,-12.21,0,*68
1522688669.46,49474,10.5,72830.5,-11.31,-12.43,-12.21,0,*6C
1522688670.68,49475,10.5,72830.5,-11.31,-12.47,-12.29,0,*61
1522688671.9,49476,10.5,72826.5,-11.31,-12.47,-12.29,0,*62
1522688673.12,49477,10.5,72826.3,-11.31,-12.47,-12.21,0,*6B
1522688674.34,49478,10.5,72824.0,-11.31,-12.43,-12.21,0,*60
1522688675.56,49479,10.5,72826.0,-11.31,-12.47,-12.29,0,*6D
1522688676.77,49480,10.5,72824.5,-11.31,-12.43,-12.29,0,*6F
1522688678.04,49481,10.5,72830.8,-11.31,-12.57,-12.35,0,*66
1522688679.26,49482,10.5,72830.8,-11.31,-12.47,-12.29,0,*69
1522688680.51,49483,10.5,72828.0,-11.31,-12.57,-12.21,0,*61
1522688681.73,49484,10.5,72828.3,-11.31,-12.47,-12.21,0,*67
1522688682.97,49485,10.5,72828.5,-11.31,-12.47,-12.35,0,*63
1522688684.25,49486,10.5,72830.3,-11.31,-12.57,-12.35,0,*61
1522688685.49,49487,10.5,72828.3,-11.31,-12.57,-12.29,0,*6D
1522688686.71,49488,10.5,72826.8,-11.31,-12.47,-12.21,0,*6B
1522688687.93,49489,10.56,72834.3,-11.31,-12.47,-12.21,0,*6A
1522688689.17,49490,10.5,72828.0,-11.33,-12.47,-12.21,0,*60
1522688690.42,49491,10.5,72828.5,-11.35,-12.47,-12.35,0,*62
1522688691.66,49492,10.5,72828.5,-11.33,-12.47,-12.29,0,*6A
1522688692.9,49493,10.5,72830.0,-11.33,-12.43,-12.29,0,*6F
1522688694.15,49494,10.5,72828.3,-11.33,-12.47,-12.21,0,*64
1522688695.39,49495,10.5,72828.0,-11.33,-12.47,-12.21,0,*65
1522688696.64,49496,10.5,72826.0,-11.35,-12.53,-12.39,0,*6C
1522688697.88,49497,10.5,72828.0,-11.33,-12.43,-12.29,0,*6B
1522688699.12,49498,10.5,72824.8,-11.33,-12.47,-12.29,0,*60
1522688700.36,49499,10.5,72830.3,-11.33,-12.43,-12.29,0,*65
1522688701.6,49500,10.5,72830.5,-11.33,-12.47,-12.29,0,*60
1522688702.87,49501,10.5,72830.0,-11.33,-12.47,-12.35,0,*6C
1522688704.12,49502,10.5,72828.8,-11.33,-12.47,-12.29,0,*62
1522688705.36,49503,10.5,72832.0,-11.33,-12.47,-12.29,0,*63
1522688706.6,49504,10.5,72830.8,-11.33,-12.47,-12.29,0,*64
1522688707.85,49505,10.5,72826.5,-11.35,-12.53,-12.47,0,*6E
1522688709.09,49506,10.5,72826.5,-11.35,-12.61,-12.25,0,*68
1522688710.3,49507,10.5,72830.5,-11.31,-12.43,-12.29,0,*61
1522688711.54,49508,10.5,72826.8,-11.33,-12.47,-12.29,0,*68
1522688712.79,49509,10.5,72832.0,-11.31,-12.57,-12.29,0,*6A
1522688714.03,49510,10.5,72832.8,-11.33,-12.47,-12.21,0,*69
1522688715.28,49511,10.5,72832.5,-11.33,-12.47,-12.29,0,*60
1522688716.54,49512,10.5,72830.3,-11.33,-12.57,-12.29,0,*62
1522688717.81,49513,10.5,72830.0,-11.33,-12.57,-12.29,0,*63
1522688719.05,49514,10.5,72830.5,-11.33,-12.47,-12.29,0,*65
1522688720.29,49515,10.5,72832.0,-11.33,-12.43,-12.29,0,*60
1522688721.53,49516,10.5,72832.3,-11.33,-12.43,-12.29,0,*63
1522688722.78,49517,10.5,72830.5,-11.33,-12.47,-12.29,0,*66
1522688724.04,49518,10.56,72838.3,-11.33,-12.43,-12.35,0,*60
1522688725.31,49519,10.5,72830.5,-11.33,-12.57,-12.29,0,*69
1522688726.55,49520,10.5,72832.5,-11.33,-12.43,-12.29,0,*66
1522688727.77,49521,10.5,72832.3,-11.35,-12.47,-12.39,0,*64
1522688729.01,49522,10.5,72834.8,-11.33,-12.43,-12.29,0,*64
1522688730.25,49523,10.5,72832.8,-11.33,-12.47,-12.29,0,*61
1522688731.52,49524,10.5,72828.3,-11.33,-12.47,-12.35,0,*6B
1522688732.77,49525,10.5,72828.5,-11.35,-12.47,-12.35,0,*6C
1522688734.03,49526,10.5,72830.5,-11.33,-12.57,-12.29,0,*65
1522688735.31,49527,10.5,72828.0,-11.35,-12.53,-12.35,0,*6B
1522688736.58,49528,10.56,72830.3,-11.33,-12.57,-12.21,0,*63
1522688737.84,49529,10.5,72832.0,-11.33,-12.43,-12.35,0,*62
1522688739.09,49530,10.5,72830.0,-11.33,-12.47,-12.29,0,*63
1522688740.33,49531,10.5,72828.8,-11.33,-12.43,-12.21,0,*6E
1522688741.57,49532,10.5,72826.3,-11.35,-12.47,-12.35,0,*6A
1522688742.79,49533,10.5,72828.5,-11.35,-12.39,-12.25,0,*63
1522688744.0,49534,10.5,72824.3,-11.35,-12.47,-12.25,0,*6D
1522688745.25,49535,10.5,72824.3,-11.33,-12.43,-12.29,0,*62
1522688746.52,49536,10.5,72826.8,-11.35,-12.53,-12.35,0,*6B
1522688747.79,49537,10.5,72820.8,-11.33,-12.57,-12.21,0,*6D
1522688749.03,49538,10.5,72822.8,-11.33,-12.43,-12.29,0,*6F
1522688750.27,49539,10.5,72822.5,-11.35,-12.53,-12.25,0,*65
1522688751.54,49540,10.5,72818.8,-11.33,-12.43,-12.35,0,*6D
1522688752.76,49541,10.5,72822.5,-11.35,-12.47,-12.25,0,*6F
1522688754.03,49542,10.5,72820.5,-11.35,-12.53,-12.35,0,*68
1522688755.27,49543,10.5,72818.8,-11.33,-12.47,-12.21,0,*6F
1522688756.55,49544,10.5,72820.0,-11.35,-12.53,-12.35,0,*6E
1522688757.82,49545,10.5,72818.8,-11.35,-12.53,-12.35,0,*6F
1522688759.06,49546,10.5,72820.0,-11.33,-12.47,-12.29,0,*62
1522688760.31,49547,10.5,72826.3,-11.33,-12.47,-12.29,0,*63
1522688761.55,49548,10.5,72820.8,-11.35,-12.47,-12.35,0,*67
1522688762.82,49549,10.5,72826.0,-11.33,-12.47,-12.35,0,*60
1522688764.04,49550,10.5,72820.3,-11.35,-12.43,-12.29,0,*67
1522688765.28,49551,10.5,72822.0,-11.35,-12.53,-12.25,0,*6B
1522688766.53,49552,10.5,72828.0,-11.35,-12.47,-12.35,0,*6C
1522688767.75,49553,10.5,72822.3,-11.35,-12.47,-12.25,0,*6C
1522688768.99,49554,10.5,72824.3,-11.33,-12.43,-12.21,0,*6D
1522688770.23,49555,10.5,72822.3,-11.35,-12.47,-12.35,0,*6B
1522688771.48,49556,10.5,72822.5,-11.33,-12.47,-12.29,0,*63
1522688772.75,49557,10.5,72826.5,-11.35,-12.53,-12.35,0,*6C
1522688773.99,49558,10.5,72828.0,-11.33,-12.47,-12.29,0,*6D
1522688775.23,49559,10.5,72830.3,-11.33,-12.43,-12.29,0,*68
1522688776.51,49560,10.5,72826.0,-11.35,-12.53,-12.35,0,*68
1522688777.78,49561,10.5,72826.3,-11.35,-12.61,-12.35,0,*68
1522688779.02,49562,10.5,72824.3,-11.33,-12.47,-12.29,0,*64
1522688780.26,49563,10.5,72824.8,-11.35,-12.61,-12.39,0,*66
1522688781.5,49564,10.5,72826.0,-11.33,-12.43,-12.29,0,*66
1522688782.74,49565,10.5,72828.3,-11.35,-12.61,-12.25,0,*6D
1522688783.98,49566,10.5,72826.5,-11.35,-12.57,-12.29,0,*67
1522688785.23,49567,10.5,72830.5,-11.35,-12.53,-12.25,0,*6E
1522688786.47,49568,10.5,72828.0,-11.35,-12.65,-12.39,0,*69
1522688787.74,49569,10.5,72826.5,-11.35,-12.61,-12.35,0,*60
1522688789.0,49570,10.5,72830.8,-11.35,-12.61,-12.35,0,*68
1522688790.25,49571,10.5,72828.8,-11.35,-12.53,-12.25,0,*69
1522688791.5,49572,10.5,72830.3,-11.35,-12.53,-12.39,0,*67
1522688792.74,49573,10.5,72826.8,-11.35,-12.53,-12.39,0,*66
1522688794.02,49574,10.5,72830.3,-11.35,-12.53,-12.35,0,*6D
1522688795.26,49575,10.5,72832.5,-11.35,-12.53,-12.39,0,*60
1522688796.51,49576,10.5,72832.3,-11.35,-12.53,-12.39,0,*63
1522688797.78,49577,10.5,72834.0,-11.35,-12.53,-12.35,0,*6E
1522688799.06,49578,10.5,72832.5,-11.35,-12.53,-12.35,0,*61
1522688800.32,49579,10.5,72830.5,-11.35,-12.61,-12.35,0,*61
1522688801.56,49580,10.5,72828.8,-11.35,-12.61,-12.25,0,*66
1522688802.81,49581,10.5,72826.3,-11.33,-12.47,-12.21,0,*61
1522688804.08,49582,10.5,72824.5,-11.33,-12.53,-12.29,0,*6F
1522688805.35,49583,10.5,72824.0,-11.35,-12.53,-12.35,0,*65
1522688806.63,49584,10.5,72820.0,-11.35,-12.53,-12.35,0,*62
1522688807.87,49585,10.5,72824.0,-11.35,-12.53,-12.25,0,*62
1522688809.09,49586,10.5,72824.0,-11.35,-12.47,-12.39,0,*69
1522688810.36,49587,10.5,72824.3,-11.35,-12.61,-12.35,0,*60
1522688811.6,49588,10.5,72830.3,-11.35,-12.61,-12.39,0,*63
1522688812.84,49589,10.5,72828.8,-11.35,-12.61,-12.39,0,*62
1522688814.08,49590,10.5,72830.0,-11.35,-12.53,-12.47,0,*62
1522688815.35,49591,10.5,72830.3,-11.33,-12.47,-12.35,0,*65
1522688816.59,49592,10.5,72830.0,-11.35,-12.61,-12.25,0,*65
1522688817.86,49593,10.5,72826.5,-11.35,-12.53,-12.35,0,*64
1522688819.08,49594,10.5,72828.5,-11.35,-12.47,-12.29,0,*6B
1522688820.33,49595,10.5,72830.3,-11.35,-12.39,-12.35,0,*6E
1522688821.57,49596,10.5,72828.8,-11.35,-12.47,-12.35,0,*64
1522688822.85,49597,10.5,72830.0,-11.35,-12.53,-12.35,0,*60
1522688824.12,49598,10.5,72830.5,-11.35,-12.53,-12.35,0,*6F
1522688825.36,49599,10.5,72826.0,-11.35,-12.61,-12.25,0,*6E
1522688826.61,49600,10.5,72826.8,-11.35,-12.53,-12.39,0,*61
1522688827.85,49601,10.5,72824.8,-11.35,-12.53,-12.25,0,*6D
1522688829.12,49602,10.5,72828.3,-11.35,-12.53,-12.35,0,*6F
1522688830.39,49603,10.5,72824.8,-11.35,-12.61,-12.35,0,*6F
1522688831.66,49604,10.5,72830.8,-11.35,-12.61,-12.35,0,*68
1522688832.93,49605,10.5,72826.3,-11.35,-12.53,-12.35,0,*68
1522688834.17,49606,10.5,72824.3,-11.35,-12.61,-12.39,0,*66
1522688835.42,49607,10.5,72824.8,-11.35,-12.53,-12.39,0,*66
1522688836.69,49608,10.5,72828.3,-11.35,-12.61,-12.35,0,*64
1522688837.98,49609,10.5,72826.5,-11.33,-12.57,-12.35,0,*66
1522688839.22,49610,10.5,72826.8,-11.35,-12.61,-12.39,0,*61
1522688840.46,49611,10.5,72824.8,-11.35,-12.61,-12.39,0,*60
1522688841.71,49612,10.5,72824.0,-11.35,-12.53,-12.47,0,*6B
1522688842.98,49613,10.5,72826.5,-11.35,-12.53,-12.35,0,*6F
1522688844.2,49614,10.5,72826.0,-11.35,-12.47,-12.39,0,*61
1522688845.44,49615,10.5,72826.0,-11.35,-12.61,-12.47,0,*6D
1522688846.68,49616,10.5,72822.5,-11.35,-12.61,-12.39,0,*67
1522688847.92,49617,10.5,72826.8,-11.35,-12.47,-12.35,0,*6E
1522688849.2,49618,10.5,72824.8,-11.35,-12.53,-12.35,0,*64
1522688850.42,49619,10.5,72826.5,-11.35,-12.47,-12.39,0,*6C
1522688851.69,49620,10.5,72830.3,-11.35,-12.53,-12.35,0,*6F
1522688852.93,49621,10.5,72824.0,-11.35,-12.61,-12.25,0,*6E
1522688854.2,49622,10.5,72824.0,-11.37,-12.53,-12.25,0,*6E
1522688855.47,49623,10.5,72824.5,-11.37,-12.53,-12.39,0,*62
1522688856.72,49624,10.5,72824.3,-11.35,-12.53,-12.47,0,*6E
1522688857.99,49625,10.5,72824.5,-11.37,-12.53,-12.39,0,*64
1522688859.26,49626,10.5,72824.5,-11.37,-12.61,-12.39,0,*66
1522688860.52,49627,10.5,72820.0,-11.37,-12.61,-12.39,0,*67
1522688861.8,49628,10.5,72826.0,-11.37,-12.53,-12.39,0,*69
1522688863.09,49629,10.5,72822.5,-11.37,-12.61,-12.35,0,*65
1522688864.39,49630,10.5,72826.5,-11.37,-12.53,-12.35,0,*6C
1522688865.66,49631,10.5,72830.0,-11.37,-12.53,-12.43,0,*6C
1522688866.96,49632,10.5,72830.5,-11.37,-12.61,-12.35,0,*6F
1522688868.23,49633,10.5,72828.8,-11.37,-12.47,-12.35,0,*6A
1522688869.53,49634,10.5,72830.3,-11.37,-12.61,-12.35,0,*69
1522688870.83,49635,10.5,72826.8,-11.37,-12.53,-12.35,0,*69
1522688872.13,49636,10.5,72830.8,-11.37,-12.53,-12.35,0,*6A
1522688873.4,49637,10.5,72828.0,-11.37,-12.53,-12.25,0,*6A
1522688874.67,49638,10.5,72828.8,-11.37,-12.53,-12.39,0,*68
1522688875.97,49639,10.5,72826.0,-11.37,-12.61,-12.35,0,*64
1522688877.27,49640,10.5,72830.0,-11.37,-12.53,-12.35,0,*6B
1522688878.51,49641,10.5,72828.3,-11.39,-12.57,-12.39,0,*6C
1522688879.78,49642,10.5,72830.0,-11.37,-12.53,-12.25,0,*68
1522688881.08,49643,10.5,72830.0,-11.37,-12.53,-12.35,0,*68
1522688882.38,49644,10.5,72826.5,-11.37,-12.53,-12.35,0,*6F
1522688883.69,49645,10.5,72824.8,-11.37,-12.53,-12.35,0,*6E
1522688884.95,49646,10.5,72830.5,-11.37,-12.61,-12.39,0,*60
1522688886.22,49647,10.5,72834.3,-11.37,-12.61,-12.25,0,*6C
1522688887.52,49648,10.5,72834.8,-11.37,-12.53,-12.35,0,*63
1522688888.82,49649,10.5,72830.8,-11.37,-12.53,-12.35,0,*62
1522688890.07,49650,10.5,72828.3,-11.39,-12.57,-12.39,0,*6C
1522688891.37,49651,10.5,72828.3,-11.37,-12.53,-12.35,0,*6B
1522688892.61,49652,10.5,72830.3,-11.39,-12.65,-12.39,0,*6F
1522688893.88,49653,10.5,72830.5,-11.37,-12.47,-12.35,0,*6C